Home > Weather > Sherbrooke > Past weeks

Flag for Canada Past Weather in Sherbrooke, Quebec, Canada — Yesterday and Last 2 Weeks

Now
52 °F

Clear.


Feels Like: 51 °F
Forecast: 51 / 80 °F
Wind: 3 mph from East

Location: Sherbrooke

Current Time: Jul 31, 2016 at 3:20:04 AM

Latest Report: Jul 31, 2016 at 2:00 AM


Visibility: 9 mi

Pressure: 30.12 "Hg

Humidity: 94%

Dew Point: 50 °F

Location of SherbrookeLocation

Past Weather in Sherbrooke — Graph

°F

Sherbrooke Temperature Yesterday

Maximum temperature yesterday: 75 °F (at 1:00 PM)
Minimum temperature yesterday: 48 °F (at 5:00 AM)
Average temperature yesterday: 61 °F

High & Low Weather Summary for the Past Weeks

 TemperatureHumidityPressure
High86 °F (Jul 27, 4:00 PM)100% (Jul 16, 3:00 AM)30.17 "Hg (Jul 16, 3:00 AM)
Low48 °F (Jul 30, 5:00 AM)39% (Jul 29, 2:00 PM)29.67 "Hg (Jul 22, 6:00 PM)
Average67 °F80%29.94 "Hg
* Reported Jul 16 2:00 AM — Jul 31 2:00 AM, Sherbrooke, Weather by CustomWeather, © 2016

Note: Actual official high and low records may vary slightly from our data, if they occured in-between our weather recording intervals... More about our weather records

Advertising

Sherbrooke Weather History for the Previous 24 Hours

Scroll right to see more
 ConditionsComfort  
Time TempWeatherWind HumidityBarometerVisibility
2:00 AM
Sun, Jul 31
52 °FClear.3 mph94%30.12 "Hg9 mi
1:00 AM52 °FClear.No wind100%30.13 "Hg7 mi
12:00 AM54 °FClear.3 mph94%30.13 "Hg9 mi
11:00 PM
Sat, Jul 30
55 °FClear.2 mph88%30.13 "Hg9 mi
10:00 PM55 °FClear.3 mph88%30.13 "Hg9 mi
9:00 PM59 °FSunny.No wind88%30.11 "Hg7 mi
8:00 PM68 °FSunny.3 mph60%30.09 "Hg9 mi
7:00 PM72 °FSunny.7 mph53%30.08 "Hg9 mi
6:00 PM73 °FSunny.6 mph50%30.07 "Hg9 mi
5:00 PM73 °FPassing clouds.9 mph50%30.07 "Hg9 mi
4:00 PM73 °FSunny.7 mph50%30.07 "Hg9 mi
3:00 PM73 °FPassing clouds.8 mph50%30.08 "Hg9 mi
2:00 PM73 °FPassing clouds.8 mph50%30.07 "Hg9 mi
1:00 PM75 °FPassing clouds.13 mph47%30.08 "Hg9 mi
12:00 PM72 °FPartly sunny.7 mph53%30.08 "Hg9 mi
11:00 AM70 °FPartly sunny.7 mph60%30.09 "Hg9 mi
10:00 AM68 °FSunny.6 mph69%30.09 "Hg9 mi
9:00 AM63 °FSunny.3 mph77%30.09 "Hg9 mi
8:00 AM57 °FSunny.3 mph88%30.08 "Hg9 mi
7:00 AM54 °FSunny.2 mph94%30.06 "Hg9 mi
6:01 AM48 °FFog.2 mph94%30.05 "Hg1 mi
5:58 AM48 °FPassing clouds.2 mph94%30.05 "Hg9 mi
5:00 AM48 °FFog.No wind100%30.04 "Hg5 mi
4:02 AM50 °FClear.2 mph100%30.02 "Hg9 mi
4:00 AM50 °FFog.No wind100%30.02 "Hg2 mi
3:51 AM50 °FFog.5 mph94%30.02 "Hg1 mi
3:00 AM50 °FClear.2 mph100%30.01 "Hg9 mi
Weather by CustomWeather, © 2016

See weather overviewHow to use our weather pages